Location: Newark
(25.6108°S, 54.5803°W)
Time: 14:27:57
(UTC+00:00)

Transit 2A - All Passes

Search period start: 30 October 2020 00:00
Search period end: 09 November 2020 00:00
Orbit: 593 x 966 km, 66.7° (Epoch: 29 October)

Date Brightness Start Highest point End Pass type
(mag) Time Alt. Az. Time Alt. Az. Time Alt. Az.
30 Oct - 01:45:34 10° SSW 01:51:03 75° ESE 01:57:03 10° NNE visible
30 Oct - 03:33:14 10° W 03:33:49 10° WNW 03:34:25 10° WNW night (unlit)
30 Oct - 14:36:39 10° NNE 14:40:08 23° ENE 14:43:35 10° SE daylight
30 Oct - 16:20:00 10° WNW 16:23:07 19° WSW 16:26:15 10° SSW daylight
31 Oct - 01:11:37 10° S 01:16:54 48° ESE 01:22:39 10° NE visible
31 Oct - 02:56:13 10° WSW 02:59:48 17° WNW 03:03:33 10° NW visible
31 Oct - 14:03:58 10° NE 14:06:07 13° ENE 14:08:15 10° ESE daylight
31 Oct - 15:45:00 10° NW 15:48:52 31° WSW 15:52:46 10° S daylight
01 Nov - 00:37:51 10° S 00:42:42 31° ESE 00:47:56 10° NE visible
01 Nov - 02:21:05 10° SW 02:25:44 27° WNW 02:30:42 10° NNW visible
01 Nov - 15:10:25 10° NW 15:14:42 55° WSW 15:18:57 10° SSE daylight
02 Nov - 00:04:23 10° SSE 00:08:28 21° ESE 00:12:48 10° ENE visible
02 Nov - 01:46:25 10° SW 01:51:40 42° WNW 01:57:18 10° N visible
02 Nov - 14:36:12 10° NNW 14:40:34 83° ENE 14:44:54 10° SSE daylight
02 Nov - 23:31:28 10° SSE 23:34:10 14° ESE 23:36:58 10° E visible
03 Nov - 01:12:02 10° SSW 01:17:33 65° WNW 01:23:33 10° NNE visible
03 Nov - 14:02:17 10° N 14:06:29 45° ENE 14:10:36 10° SE daylight
03 Nov - 15:49:09 10° WSW 15:49:46 10° WSW 15:50:23 10° SW daylight
04 Nov - 00:37:51 10° SSW 00:43:25 82° ESE 00:49:29 10° NNE visible
04 Nov - 13:28:47 10° NNE 13:32:25 26° ENE 13:36:00 10° SE daylight
04 Nov - 15:12:33 10° WNW 15:15:26 17° WSW 15:18:21 10° SSW daylight
05 Nov - 00:03:51 10° SSW 00:09:16 53° ESE 00:15:09 10° NE visible
05 Nov - 01:48:48 10° WSW 01:52:08 16° WNW 01:55:37 10° NW visible
05 Nov - 12:55:54 10° NE 12:58:23 15° ENE 13:00:52 10° ESE daylight
05 Nov - 14:37:26 10° WNW 14:41:11 28° WSW 14:44:58 10° S daylight
05 Nov - 23:30:02 10° S 23:35:05 35° ESE 23:40:30 10° NE visible
06 Nov - 01:13:32 10° SW 01:18:05 25° WNW 01:22:55 10° NNW visible
06 Nov - 14:02:47 10° NW 14:06:59 49° WSW 14:11:12 10° S daylight
06 Nov - 22:56:30 10° S 23:00:51 23° ESE 23:05:28 10° ENE visible
07 Nov - 00:38:48 10° SW 00:44:01 38° WNW 00:49:36 10° N visible
07 Nov - 13:28:30 10° NNW 13:32:50 88° WSW 13:37:12 10° SSE daylight
07 Nov - 22:23:23 10° SSE 22:26:34 15° ESE 22:29:51 10° E visible
08 Nov - 00:04:21 10° SSW 00:09:54 60° WNW 00:15:55 10° N visible
08 Nov - 12:54:31 10° N 12:58:45 51° ENE 13:02:57 10° SE daylight
08 Nov - 23:30:09 10° SSW 23:35:47 89° ESE 23:41:55 10° NNE visible
